Location: State Camp
(41.2367°N, 77.7828°W)
Time: 05:57:10
(UTC-04:00)

ADEOS Rocket - Visible Passes

Search period start: 30 June 2015 00:00
Search period end: 10 July 2015 00:00
Orbit: 860 x 1306 km, 98.7° (Epoch: 29 June)

Date Brightness Start Highest point End Pass type
(mag) Time Alt. Az. Time Alt. Az. Time Alt. Az.
01 Jul 5.8 21:34:27 10° WSW 21:37:44 14° W 21:40:43 10° NW visible
03 Jul 6.0 21:43:20 10° WSW 21:45:42 12° W 21:47:38 10° WNW visible
08 Jul 5.6 21:06:28 10° SW 21:11:37 23° W 21:16:55 10° NW visible
